Location: Cahas Mountain Overlook
(37.0833°N, 80.1000°W)
Time: 19:19:28
(UTC-04:00)

Tiros 1 - Pass Details

Date: 14 February 2026
Orbit: 618 x 649 km, 48.4° (Epoch: 13 March)

Event Time Altitude Azimuth Distance (km) Brightness Sun altitude
Rises 08:25:39 0° 195° (SSW) 2,901 10.7 13.2°
Reaches altitude 10° 08:28:28 10° 179° (S) 1,991 10.1 13.7°
Maximum altitude 08:31:47 20° 132° (SE) 1,447 11.0 14.2°
Drops below altitude 10° 08:35:06 10° 85° (E) 1,986 10.8 14.8°
Sets 08:37:54 0° 69° (ENE) 2,891 11.1 15.3°
